SCP
0 0 0 0 0 0 0 0 0 0 0 0 0 0 0 0 0 0 0 0 0 0 0 0 0 0 0 0 0 0 0 0 0 0 0 0 0 0 0 0 0 0 0
0 0 0 0 0 0 0 0 0 0 0 0 0 0 0 0 0 0 0 0 0 0 0 0 0 0 0 0 0 0 0 0 0 0 0 0 0 0 0 0 0 0 0
0 0 0 0 0 0 0 0 0 0 0 0 0 0 0 0 0 0 0 0 0 0 0 0 0 0 0 0 0 0 0 0 0 0 0 0 0 0 0 0 0 0 0
0 0 0 0 0 0 0 0 0 0 0 0 0 0 0 0 0 0 0 0 0 0 0 0 0 0 0 0 0 0 0 0 0 0 0 0 0 0 0 0 0 0 0
0 0 0 0 0 0 0 0 0 0 0 0 0 0 0 0 0 0 0 0 0 0 0 0 0 0 0 0 0 0 0 0 0 0 0 0 0 0 0 0 0 0 0
0 0 0 0 0 0 0 0 0 0 0 0 0 0 0 0 0 0 0 0 0 0 0 0 0 0 0 0 0 0 0 0 0 0 0 0 0 0 0 0 0 0 0
0 0 0 0 0 0 0 0 0 0 0 0 0 0 0 0 0 0 0 0 0 0 0 0 0 0 0 0 0 0 0 0 0 0 0 0 0 0 0 0 0 0 0
0 0 0 0 0 0 0 0 0 0 0 0 0 0 0 0 0 0 0 0 0 0 0 0 0 0 0 0 0 0 0 0 0 0 0 0 0 0 0 0 0 0 0
0 0 0 0 0 0 0 0 0 0 0 0 0 0 0 0 0 0 0 0 0 0 0 0 0 0 0 0 0 0 0 0 0 0 0 0 0 0 0 0 0 0 0
0 0 0 0 0 0 0 0 0 0 0 0 0 0 0 0 0 0 0 0 0 0 0 0 0 0 0 0 0 0 0 0 0 0 0 0 0 0 0 0 0 0 0
0 0 0 0 0 0 0 0 0 0 0 0 0 0 0 0 0 0 0 0 0 0 0 0 0 0 0 0 0 0 0 0 0 0 0 0 0 0 0 0 0 0 0
0 0 0 0 0 0 0 0 0 0 0 0 0 0 0 0 0 0 0 0 0 0 0 0 0 0 0 0 0 0 0 0 0 0 0 0 0 0 0 0 0 0 0
0 0 0 0 0 0 0 0 0 0 0 0 0 0 0 0 0 0 0 0 0 0 0 0 0 0 0 0 0 0 0 0 0 0 0 0 0 0 0 0 0 0 0
0 0 0 0 0 0 0 0 0 0 0 0 0 0 0 0 0 0 0 0 0 0 0 0 0 0 0 0 0 0 0 0 0 0 0 0 0 0 0 0 0 0 0
0 0 0 0 0 0 0 0 0 0 0 0 0 0 0 0 0 0 0 0 0 0 0 0 0 0 0 0 0 0 0 0 0 0 0 0 0 0 0 0 0 0 0
0 0 0 0 0 0 0 0 0 0 0 0 0 0 0 0 0 0 0 0 0 0 0 0 0 0 0 0 0 0 0 0 0 0 0 0 0 0 0 0 0 0 0
0 0 0 0 0 0 0 0 0 0 0 0 0 0 0 0 0 0 0 0 0 0 0 0 0 0 0 0 0 0 0 0 0 0 0 0 0 0 0 0 0 0 0
0 0 0 0 0 0 0 0 0 0 0 0 0 0 0 0 0 0 0 0 0 0 0 0 0 0 0 0 0 0 0 0 0 0 0 0 0 0 0 0 0 0 0
0 0 0 0 0 0 0 0 0 0 0 0 0 0 0 0 0 0 0 0 0 0 0 0 0 0 0 0 0 0 0 0 0 0 0 0 0 0 0 0 0 0 0
0 0 0 0 0 0 0 0 0 0 0 0 0 0 0 0 0 0 0 0 0 0 0 0 0 0 0 0 0 0 0 0 0 0 0 0 -0 0 0 0 0 0 0
0 0 0 0 0 0 0 0 0 0 0 0 0 0 0 0 0 0 0 0 0 0 0 0 -0 0 0 0 0 0 0 0 0 0 0 0 0 0 0 0 0 0 0
0 0 0 -0 0 0 0 0 0 0 0 0 0 0 0 0 0 0 0 0 0 0 0 -0 -0 0 0 0 0 0 0 0 -0 0 0 0 0 0 0 0 0 0 0
0 0 0 -0 0 -0 -0 0 0 0 0 0 0 0 0 0 0 0 0 0 0 0 0 -0 -0 0 -0 -0 0 0 0 0 0 0 0 0 0 0 0 0 0 0 0
0 0 0 -0 -0 -0 0 0 0 0 -0 -0 0 0 0 0 0 0 0 0 0 0 0 -0 -0 -0 -0 -0 0 0 0 0 0 0 0 0 0 0 0 0 0 0 0
0 -0 -0 -0 -0 -0 0 0 0 -0 -0 0 0 0 0 0 0 0 0 0 0 0 0 -0 -0 -0 -0 -0 -0 -0 -0 -0 0 -0 0 0 0 0 0 0 0 0 0
-0 -0 -0 -0 -0 -0 0 -0 -0 -0 0 0 0 0 0 0 0 0 0 0 0 0 0 0 -0 -0 -0 -0 0 0 0 0 0 0 0 0 0 0 0 0 0 0 0
Wind_Speed_500mb
73 66 60 49 56 64 61 57 52 42 35 34 35 39 43 45 48 51 51 50 52 52 51 52 56 58 66 60 48 45 47 49 59 63 54 51 46 35 27 28 27 26 26
76 64 51 48 52 55 56 52 45 35 31 33 38 44 48 48 50 53 54 53 55 57 57 57 62 65 69 71 53 55 55 49 50 57 55 49 43 39 35 31 34 34 24
76 62 51 45 45 41 41 40 34 30 33 37 44 50 52 51 53 54 57 60 62 62 62 65 71 72 73 63 57 57 56 56 51 51 52 46 46 39 40 34 30 31 29
68 59 50 45 39 33 29 29 30 32 36 42 49 53 54 53 57 61 65 69 70 71 71 75 78 77 68 63 62 62 61 61 60 55 53 49 46 35 41 37 34 32 36
59 52 45 40 33 31 32 34 35 39 42 46 51 53 54 58 63 69 74 77 80 81 82 81 78 73 64 63 65 66 65 64 60 60 60 58 50 36 36 35 37 37 39
52 44 40 39 41 45 44 46 47 45 42 47 51 54 58 63 70 74 78 82 82 80 78 78 76 74 68 67 74 80 79 77 73 69 67 60 56 47 32 34 37 46 44
56 53 52 55 58 56 54 53 47 43 46 49 52 57 64 71 74 78 75 71 67 68 70 72 75 71 66 67 70 70 71 74 79 79 82 77 68 63 48 41 43 49 57
74 64 63 60 57 55 52 48 43 45 48 52 58 64 71 72 71 67 60 58 63 67 69 70 70 70 67 65 69 71 70 74 76 78 82 84 82 78 68 53 43 49 58
66 63 54 54 55 50 43 40 45 49 53 61 66 68 68 66 63 59 56 63 73 76 76 76 74 77 77 73 70 71 71 69 60 59 69 73 73 73 74 67 60 48 59
36 49 48 43 36 35 39 44 47 54 63 63 63 63 64 65 60 65 69 75 84 90 92 94 94 92 89 85 74 75 83 80 70 68 69 72 74 72 68 67 68 69 56
25 35 43 43 42 42 42 52 60 63 60 59 62 63 63 66 72 71 68 72 79 82 78 82 81 76 70 65 67 81 92 83 86 85 82 72 69 70 73 74 77 76 70
40 38 37 36 38 43 50 58 55 51 54 57 60 64 68 71 72 71 70 69 68 70 77 79 77 73 72 70 73 81 85 86 89 94 89 89 86 82 83 84 79 84 74
48 46 39 36 36 43 50 45 42 45 51 56 62 71 78 73 68 68 69 71 74 79 82 82 79 78 79 82 82 85 89 93 94 95 103 106 101 96 82 78 79 80 82
35 34 35 38 43 42 34 36 41 45 52 58 66 73 73 70 66 67 74 79 81 81 81 82 83 85 86 88 91 94 94 93 95 100 105 106 97 93 95 85 78 85 85
40 37 35 32 28 27 30 34 40 45 51 58 60 62 67 68 64 70 71 77 76 77 77 79 83 83 86 88 85 80 78 74 80 87 91 96 94 86 94 91 79 83 88
29 27 26 22 23 27 32 36 37 39 37 41 47 50 56 59 61 63 63 64 65 60 60 72 81 80 83 83 82 81 78 75 74 73 81 89 94 107 97 96 90 83 90
19 20 17 20 23 27 31 33 37 31 32 37 38 40 42 49 51 51 52 55 56 62 70 80 81 83 86 87 85 82 82 79 76 72 71 82 87 89 95 97 89 89 87
14 9 11 16 18 19 18 23 28 39 44 41 37 39 39 40 43 45 48 55 67 68 76 81 84 85 84 82 81 79 74 64 73 74 69 73 82 86 97 92 82 95 93
7 6 8 10 12 14 17 19 23 31 35 38 41 36 39 39 43 47 54 62 71 78 83 86 85 83 79 70 63 56 58 58 69 73 68 75 80 98 92 81 91 90 95
6 12 16 17 12 12 15 19 22 25 32 37 39 41 46 49 53 55 58 63 72 81 81 85 83 74 59 44 36 35 26 35 52 62 68 81 95 84 88 83 96 102 96
3 9 16 9 8 12 16 20 24 28 32 33 36 36 39 47 52 57 62 67 75 80 80 81 73 58 34 20 16 14 6 22 43 56 75 78 86 89 70 90 96 89 86
10 2 9 7 8 11 15 18 24 28 30 33 36 39 40 43 51 56 60 64 72 78 79 75 66 47 19 13 12 1 7 19 37 55 67 83 82 94 83 93 92 93 86
9 7 5 10 5 8 12 15 22 29 33 35 37 39 42 45 50 55 59 64 73 80 82 78 64 37 7 9 3 11 22 32 38 59 64 82 85 76 82 87 91 87 88
15 9 5 6 6 11 16 24 26 27 32 34 34 36 40 42 47 53 58 64 72 78 80 78 71 43 2 4 15 14 24 33 40 60 86 48 88 85 85 82 80 77 76
10 4 19 16 15 20 21 19 20 24 28 30 33 37 40 46 48 52 59 66 72 78 84 81 74 57 21 10 18 35 35 48 41 63 55 47 70 59 66 67 63 70 75
22 36 29 29 26 18 15 15 21 30 36 39 45 48 49 53 58 61 65 69 75 80 84 86 79 74 54 15 26 31 38 35 36 45 66 48 38 41 44 52 54 48 57
Wind_Direction_500mb
210 213 213 220 228 235 237 237 242 252 267 280 291 298 304 307 312 315 317 316 312 310 307 304 305 309 307 302 286 283 284 281 279 284 283 285 279 284 288 274 281 284 270
211 212 208 218 221 228 230 233 243 255 267 284 296 302 306 309 311 312 313 312 310 307 306 302 301 300 298 298 288 283 283 278 278 284 286 282 279 267 283 280 274 269 269
209 208 209 216 220 215 218 232 244 259 276 291 300 302 304 309 308 310 312 311 309 305 303 298 295 294 297 293 282 281 284 286 283 286 286 286 282 270 265 277 280 272 262
203 207 211 211 210 219 230 243 256 271 282 291 297 300 304 308 310 311 310 309 306 302 297 293 289 289 289 289 283 278 279 280 283 282 280 282 282 281 260 266 267 265 256
196 203 210 207 215 226 235 246 255 265 276 287 296 299 305 306 308 307 306 304 301 298 296 291 286 285 277 277 276 275 276 278 278 277 277 278 276 276 266 258 264 258 243
196 200 205 213 221 229 235 241 248 257 273 282 288 296 300 302 302 301 300 298 298 298 300 299 294 292 283 272 266 264 265 269 268 269 272 272 273 265 264 253 259 252 237
206 211 217 221 227 229 231 234 241 253 267 279 290 295 296 298 299 299 299 299 299 297 296 298 296 290 287 282 277 272 267 259 256 258 261 260 263 265 259 254 251 253 254
219 222 224 228 226 224 223 228 243 263 275 284 289 292 296 299 300 300 300 296 295 295 296 295 292 290 288 288 285 278 273 267 258 253 253 256 257 259 263 251 246 256 253
226 228 218 211 207 209 224 246 265 274 284 290 292 295 298 299 299 302 308 308 305 301 297 293 288 287 285 285 280 281 278 274 273 263 259 259 257 252 257 255 240 239 234
199 193 191 192 205 229 252 266 276 286 289 290 294 296 299 302 307 311 315 309 300 297 294 290 287 284 282 280 275 272 270 269 272 271 265 262 261 251 243 247 236 229 234
226 228 229 233 239 247 267 282 289 290 291 295 297 300 303 306 310 312 308 304 303 302 301 298 296 296 291 281 271 263 264 272 272 271 271 266 259 251 247 238 231 226 226
254 226 229 239 255 268 279 286 284 286 291 296 300 304 306 309 313 311 310 308 307 300 297 298 296 293 289 281 273 267 265 264 260 258 254 254 251 247 245 239 228 226 222
216 227 236 246 264 278 276 276 283 290 297 301 309 308 310 314 314 312 312 309 310 307 304 303 299 294 289 283 275 271 271 268 263 254 246 244 243 245 237 239 230 225 222
223 243 257 261 262 265 271 282 291 298 303 311 310 310 312 316 315 316 314 314 309 305 305 301 296 294 292 291 287 281 276 268 260 255 250 246 238 235 231 229 229 219 217
239 241 247 252 257 268 281 293 299 305 312 310 310 312 313 313 314 313 312 308 306 303 303 297 298 299 296 292 289 284 277 269 258 254 248 241 226 217 214 217 223 217 210
243 251 255 262 276 287 292 294 302 309 311 313 312 310 307 304 307 309 309 309 308 309 306 306 309 312 307 301 294 289 284 275 264 253 245 233 222 216 213 217 210 208 203
260 254 267 287 294 297 304 313 320 323 328 321 318 312 311 312 311 313 315 313 318 323 325 324 316 307 297 291 286 279 272 266 267 257 241 226 215 211 205 200 199 196 197
273 274 296 301 303 317 333 340 341 340 337 335 330 329 325 323 321 323 323 328 334 337 332 325 314 308 303 298 292 284 276 265 255 245 232 215 206 199 191 195 193 191 193
304 3 7 344 347 1 349 333 345 339 340 341 336 333 333 334 335 340 347 347 342 339 335 325 322 317 310 302 295 291 276 250 244 233 217 199 190 188 194 194 193 190 187
67 38 36 27 23 354 333 350 351 348 345 349 347 345 340 338 340 345 350 350 349 346 341 334 329 323 316 309 307 306 281 244 225 212 197 189 191 189 188 185 180 181 184
233 26 20 30 0 336 357 1 349 348 345 344 347 349 350 349 351 354 352 354 356 354 349 343 340 332 327 314 321 306 261 218 205 193 186 177 183 180 188 173 180 175 174
223 299 13 3 324 348 13 2 355 358 349 344 346 351 352 356 359 357 356 1 5 4 1 358 353 347 345 358 326 354 135 181 177 177 179 181 179 175 163 177 178 178 182
217 235 311 359 358 9 13 359 8 2 358 356 353 353 358 2 4 3 2 8 12 13 11 12 9 11 57 16 5 94 130 151 163 163 164 159 172 182 168 181 181 182 187
212 239 333 81 77 52 48 33 14 0 352 352 355 2 8 11 10 11 12 16 19 19 17 19 21 18 1 94 107 114 108 135 136 159 154 153 157 166 179 186 187 192 193
200 147 108 100 84 61 41 16 359 357 8 15 21 27 29 26 22 22 23 24 27 26 26 28 28 32 39 185 126 127 124 132 142 170 167 151 168 174 175 180 182 191 197
125 115 102 91 81 63 43 26 38 43 45 45 45 43 42 39 35 33 33 31 33 33 33 32 35 41 53 115 126 133 147 150 142 168 182 169 162 176 187 189 192 192 200
Wind_Speed_850mb
73 66 60 49 56 64 61 57 52 42 35 34 35 39 43 45 48 51 51 50 52 52 51 52 56 58 66 60 48 45 47 49 59 63 54 51 46 35 27 28 27 26 26
76 64 51 48 52 55 56 52 45 35 31 33 38 44 48 48 50 53 54 53 55 57 57 57 62 65 69 71 53 55 55 49 50 57 55 49 43 39 35 31 34 34 24
76 62 51 45 45 41 41 40 34 30 33 37 44 50 52 51 53 54 57 60 62 62 62 65 71 72 73 63 57 57 56 56 51 51 52 46 46 39 40 34 30 31 29
68 59 50 45 39 33 29 29 30 32 36 42 49 53 54 53 57 61 65 69 70 71 71 75 78 77 68 63 62 62 61 61 60 55 53 49 46 35 41 37 34 32 36
59 52 45 40 33 31 32 34 35 39 42 46 51 53 54 58 63 69 74 77 80 81 82 81 78 73 64 63 65 66 65 64 60 60 60 58 50 36 36 35 37 37 39
52 44 40 39 41 45 44 46 47 45 42 47 51 54 58 63 70 74 78 82 82 80 78 78 76 74 68 67 74 80 79 77 73 69 67 60 56 47 32 34 37 46 44
56 53 52 55 58 56 54 53 47 43 46 49 52 57 64 71 74 78 75 71 67 68 70 72 75 71 66 67 70 70 71 74 79 79 82 77 68 63 48 41 43 49 57
74 64 63 60 57 55 52 48 43 45 48 52 58 64 71 72 71 67 60 58 63 67 69 70 70 70 67 65 69 71 70 74 76 78 82 84 82 78 68 53 43 49 58
66 63 54 54 55 50 43 40 45 49 53 61 66 68 68 66 63 59 56 63 73 76 76 76 74 77 77 73 70 71 71 69 60 59 69 73 73 73 74 67 60 48 59
36 49 48 43 36 35 39 44 47 54 63 63 63 63 64 65 60 65 69 75 84 90 92 94 94 92 89 85 74 75 83 80 70 68 69 72 74 72 68 67 68 69 56
25 35 43 43 42 42 42 52 60 63 60 59 62 63 63 66 72 71 68 72 79 82 78 82 81 76 70 65 67 81 92 83 86 85 82 72 69 70 73 74 77 76 70
40 38 37 36 38 43 50 58 55 51 54 57 60 64 68 71 72 71 70 69 68 70 77 79 77 73 72 70 73 81 85 86 89 94 89 89 86 82 83 84 79 84 74
48 46 39 36 36 43 50 45 42 45 51 56 62 71 78 73 68 68 69 71 74 79 82 82 79 78 79 82 82 85 89 93 94 95 103 106 101 96 82 78 79 80 82
35 34 35 38 43 42 34 36 41 45 52 58 66 73 73 70 66 67 74 79 81 81 81 82 83 85 86 88 91 94 94 93 95 100 105 106 97 93 95 85 78 85 85
40 37 35 32 28 27 30 34 40 45 51 58 60 62 67 68 64 70 71 77 76 77 77 79 83 83 86 88 85 80 78 74 80 87 91 96 94 86 94 91 79 83 88
29 27 26 22 23 27 32 36 37 39 37 41 47 50 56 59 61 63 63 64 65 60 60 72 81 80 83 83 82 81 78 75 74 73 81 89 94 107 97 96 90 83 90
19 20 17 20 23 27 31 33 37 31 32 37 38 40 42 49 51 51 52 55 56 62 70 80 81 83 86 87 85 82 82 79 76 72 71 82 87 89 95 97 89 89 87
14 9 11 16 18 19 18 23 28 39 44 41 37 39 39 40 43 45 48 55 67 68 76 81 84 85 84 82 81 79 74 64 73 74 69 73 82 86 97 92 82 95 93
7 6 8 10 12 14 17 19 23 31 35 38 41 36 39 39 43 47 54 62 71 78 83 86 85 83 79 70 63 56 58 58 69 73 68 75 80 98 92 81 91 90 95
6 12 16 17 12 12 15 19 22 25 32 37 39 41 46 49 53 55 58 63 72 81 81 85 83 74 59 44 36 35 26 35 52 62 68 81 95 84 88 83 96 102 96
3 9 16 9 8 12 16 20 24 28 32 33 36 36 39 47 52 57 62 67 75 80 80 81 73 58 34 20 16 14 6 22 43 56 75 78 86 89 70 90 96 89 86
10 2 9 7 8 11 15 18 24 28 30 33 36 39 40 43 51 56 60 64 72 78 79 75 66 47 19 13 12 1 7 19 37 55 67 83 82 94 83 93 92 93 86
9 7 5 10 5 8 12 15 22 29 33 35 37 39 42 45 50 55 59 64 73 80 82 78 64 37 7 9 3 11 22 32 38 59 64 82 85 76 82 87 91 87 88
15 9 5 6 6 11 16 24 26 27 32 34 34 36 40 42 47 53 58 64 72 78 80 78 71 43 2 4 15 14 24 33 40 60 86 48 88 85 85 82 80 77 76
10 4 19 16 15 20 21 19 20 24 28 30 33 37 40 46 48 52 59 66 72 78 84 81 74 57 21 10 18 35 35 48 41 63 55 47 70 59 66 67 63 70 75
22 36 29 29 26 18 15 15 21 30 36 39 45 48 49 53 58 61 65 69 75 80 84 86 79 74 54 15 26 31 38 35 36 45 66 48 38 41 44 52 54 48 57
Wind_Direction_850mb
210 213 213 220 228 235 237 237 242 252 267 280 291 298 304 307 312 315 317 316 312 310 307 304 305 309 307 302 286 283 284 281 279 284 283 285 279 284 288 274 281 284 270
211 212 208 218 221 228 230 233 243 255 267 284 296 302 306 309 311 312 313 312 310 307 306 302 301 300 298 298 288 283 283 278 278 284 286 282 279 267 283 280 274 269 269
209 208 209 216 220 215 218 232 244 259 276 291 300 302 304 309 308 310 312 311 309 305 303 298 295 294 297 293 282 281 284 286 283 286 286 286 282 270 265 277 280 272 262
203 207 211 211 210 219 230 243 256 271 282 291 297 300 304 308 310 311 310 309 306 302 297 293 289 289 289 289 283 278 279 280 283 282 280 282 282 281 260 266 267 265 256
196 203 210 207 215 226 235 246 255 265 276 287 296 299 305 306 308 307 306 304 301 298 296 291 286 285 277 277 276 275 276 278 278 277 277 278 276 276 266 258 264 258 243
196 200 205 213 221 229 235 241 248 257 273 282 288 296 300 302 302 301 300 298 298 298 300 299 294 292 283 272 266 264 265 269 268 269 272 272 273 265 264 253 259 252 237
206 211 217 221 227 229 231 234 241 253 267 279 290 295 296 298 299 299 299 299 299 297 296 298 296 290 287 282 277 272 267 259 256 258 261 260 263 265 259 254 251 253 254
219 222 224 228 226 224 223 228 243 263 275 284 289 292 296 299 300 300 300 296 295 295 296 295 292 290 288 288 285 278 273 267 258 253 253 256 257 259 263 251 246 256 253
226 228 218 211 207 209 224 246 265 274 284 290 292 295 298 299 299 302 308 308 305 301 297 293 288 287 285 285 280 281 278 274 273 263 259 259 257 252 257 255 240 239 234
199 193 191 192 205 229 252 266 276 286 289 290 294 296 299 302 307 311 315 309 300 297 294 290 287 284 282 280 275 272 270 269 272 271 265 262 261 251 243 247 236 229 234
226 228 229 233 239 247 267 282 289 290 291 295 297 300 303 306 310 312 308 304 303 302 301 298 296 296 291 281 271 263 264 272 272 271 271 266 259 251 247 238 231 226 226
254 226 229 239 255 268 279 286 284 286 291 296 300 304 306 309 313 311 310 308 307 300 297 298 296 293 289 281 273 267 265 264 260 258 254 254 251 247 245 239 228 226 222
216 227 236 246 264 278 276 276 283 290 297 301 309 308 310 314 314 312 312 309 310 307 304 303 299 294 289 283 275 271 271 268 263 254 246 244 243 245 237 239 230 225 222
223 243 257 261 262 265 271 282 291 298 303 311 310 310 312 316 315 316 314 314 309 305 305 301 296 294 292 291 287 281 276 268 260 255 250 246 238 235 231 229 229 219 217
239 241 247 252 257 268 281 293 299 305 312 310 310 312 313 313 314 313 312 308 306 303 303 297 298 299 296 292 289 284 277 269 258 254 248 241 226 217 214 217 223 217 210
243 251 255 262 276 287 292 294 302 309 311 313 312 310 307 304 307 309 309 309 308 309 306 306 309 312 307 301 294 289 284 275 264 253 245 233 222 216 213 217 210 208 203
260 254 267 287 294 297 304 313 320 323 328 321 318 312 311 312 311 313 315 313 318 323 325 324 316 307 297 291 286 279 272 266 267 257 241 226 215 211 205 200 199 196 197
273 274 296 301 303 317 333 340 341 340 337 335 330 329 325 323 321 323 323 328 334 337 332 325 314 308 303 298 292 284 276 265 255 245 232 215 206 199 191 195 193 191 193
304 3 7 344 347 1 349 333 345 339 340 341 336 333 333 334 335 340 347 347 342 339 335 325 322 317 310 302 295 291 276 250 244 233 217 199 190 188 194 194 193 190 187
67 38 36 27 23 354 333 350 351 348 345 349 347 345 340 338 340 345 350 350 349 346 341 334 329 323 316 309 307 306 281 244 225 212 197 189 191 189 188 185 180 181 184
233 26 20 30 0 336 357 1 349 348 345 344 347 349 350 349 351 354 352 354 356 354 349 343 340 332 327 314 321 306 261 218 205 193 186 177 183 180 188 173 180 175 174
223 299 13 3 324 348 13 2 355 358 349 344 346 351 352 356 359 357 356 1 5 4 1 358 353 347 345 358 326 354 135 181 177 177 179 181 179 175 163 177 178 178 182
217 235 311 359 358 9 13 359 8 2 358 356 353 353 358 2 4 3 2 8 12 13 11 12 9 11 57 16 5 94 130 151 163 163 164 159 172 182 168 181 181 182 187
212 239 333 81 77 52 48 33 14 0 352 352 355 2 8 11 10 11 12 16 19 19 17 19 21 18 1 94 107 114 108 135 136 159 154 153 157 166 179 186 187 192 193
200 147 108 100 84 61 41 16 359 357 8 15 21 27 29 26 22 22 23 24 27 26 26 28 28 32 39 185 126 127 124 132 142 170 167 151 168 174 175 180 182 191 197
125 115 102 91 81 63 43 26 38 43 45 45 45 43 42 39 35 33 33 31 33 33 33 32 35 41 53 115 126 133 147 150 142 168 182 169 162 176 187 189 192 192 200